GW2922 Weather Reports


time (UTC)temp
F
wind
direction
speed
knots
gust
knots
rain 1hr
in
rain 24hr
in
rain mn
in
humidity
%
barometer
mb
20260507210542 62 113 1.7 6.1 0.00 0.00 0.00 62 1021.6
20260507210038 61 89 0.9 5.2 0.00 0.00 0.00 63 1021.9
20260507205535 63 195 4.3 6.1 0.00 0.00 0.00 60 1021.9
20260507205031 62 85 3.5 7.0 0.00 0.00 0.00 61 1021.9
20260507204527 60 89 4.3 6.1 0.00 0.00 0.00 65 1021.9
20260507204025 61 124 1.7 7.0 0.00 0.00 0.00 64 1021.9
20260507203523 62 116 2.6 5.2 0.00 0.00 0.00 62 1022.3
20260507203020 62 131 0.9 1.7 0.00 0.00 0.00 64 1022.3
20260507202516 61 117 0.0 2.6 0.00 0.00 0.00 63 1022.3
20260507202012 61 113 0.9 1.7 0.00 0.00 0.00 63 1022.3
20260507201508 62 103 1.7 7.8 0.00 0.00 0.00 62 1022.3
20260507201004 62 105 0.9 5.2 0.00 0.00 0.00 64 1022.3
20260507200500 61 105 1.7 6.1 0.00 0.00 0.00 62 1022.3
20260507195955 60 112 0.0 1.7 0.00 0.00 0.00 65 1022.3
20260507195453 63 62 1.7 2.6 0.00 0.00 0.00 61 1022.3
20260507194951 61 75 0.9 2.6 0.00 0.00 0.00 62 1022.3
20260507194447 59 86 0.0 5.2 0.00 0.00 0.00 67 1022.3
20260507193943 60 98 0.9 1.7 0.00 0.00 0.00 64 1022.3
20260507193440 60 84 0.9 1.7 0.00 0.00 0.00 64 1022.3
20260507192937 61 56 0.9 3.5 0.00 0.00 0.00 64 1022.3
20260507192433 60 163 0.9 3.5 0.00 0.00 0.00 65 1022.3
20260507191930 61 96 1.7 1.7 0.00 0.00 0.00 63 1022.6
20260507191426 59 85 0.0 3.5 0.00 0.00 0.00 66 1022.3
20260507190923 61 104 0.9 2.6 0.00 0.00 0.00 64 1022.3
20260507190421 61 80 0.9 3.5 0.00 0.00 0.00 63 1022.3
20260507185920 62 103 0.9 1.7 0.00 0.00 0.00 63 1022.6
20260507185416 59 101 0.9 2.6 0.00 0.00 0.00 68 1022.6
20260507184913 58 71 1.7 1.7 0.00 0.00 0.00 67 1022.6
20260507184411 60 79 3.5 3.5 0.00 0.00 0.00 65 1022.6
20260507183908 60 120 0.0 1.7 0.00 0.00 0.00 66 1022.6
20260507183405 59 116 0.0 1.7 0.00 0.00 0.00 67 1022.6
20260507182903 59 184 2.6 3.5 0.00 0.00 0.00 67 1022.6
20260507182358 60 125 1.7 5.2 0.00 0.00 0.00 66 1022.6
20260507181855 57 97 0.9 1.7 0.00 0.00 0.00 69 1022.6
20260507181350 59 77 3.5 5.2 0.00 0.00 0.00 68 1022.6
20260507180848 59 54 1.7 2.6 0.00 0.00 0.00 67 1022.6
20260507180344 59 99 1.7 1.7 0.00 0.00 0.00 66 1022.6
20260507175840 59 114 0.0 1.7 0.00 0.00 0.00 67 1022.6
20260507175337 57 179 0.0 0.9 0.00 0.00 0.00 68 1022.6
20260507174835 59 77 1.7 2.6 0.00 0.00 0.00 65 1022.9
20260507174332 57 100 0.9 0.9 0.00 0.00 0.00 68 1022.9
20260507173829 57 83 1.7 2.6 0.00 0.00 0.00 69 1022.6
20260507173326 57 44 1.7 2.6 0.00 0.00 0.00 68 1022.6
20260507172822 57 108 3.5 7.0 0.00 0.00 0.00 72 1022.6
20260507172319 57 144 2.6 3.5 0.00 0.00 0.00 71 1022.6
20260507171815 57 172 4.3 5.2 0.00 0.00 0.00 70 1022.6
20260507171312 56 201 1.7 2.6 0.00 0.00 0.00 71 1022.3
20260507170809 55 104 0.0 2.6 0.00 0.00 0.00 73 1022.6
20260507170306 56 65 0.0 0.9 0.00 0.00 0.00 72 1022.6
20260507165801 55 180 2.6 3.5 0.00 0.00 0.00 72 1022.3
20260507165258 54 84 0.9 1.7 0.00 0.00 0.00 74 1022.6
20260507164754 55 96 0.0 0.9 0.00 0.00 0.00 74 1022.6
20260507164251 54 112 0.0 0.9 0.00 0.00 0.00 74 1022.6
20260507163748 54 76 0.0 0.9 0.00 0.00 0.00 75 1022.6
20260507163246 53 115 0.0 0.9 0.00 0.00 0.00 77 1022.6
20260507162742 53 53 3.5 3.5 0.00 0.00 0.00 76 1022.6
20260507162238 53 93 0.0 0.0 0.00 0.00 0.00 76 1022.6
20260507161735 53 172 0.0 1.7 0.00 0.00 0.00 77 1022.6
20260507161231 53 250 0.9 1.7 0.00 0.00 0.00 77 1022.6
20260507160727 53 341 1.7 3.5 0.00 0.00 0.00 76 1022.6
20260507160224 53 354 0.0 0.9 0.00 0.00 0.00 76 1022.6
20260507155720 53 353 1.7 2.6 0.00 0.00 0.00 75 1022.9
20260507155216 52 102 0.0 1.7 0.00 0.00 0.00 76 1022.6
20260507154712 52 349 1.7 3.5 0.00 0.00 0.00 76 1022.9
20260507154211 52 18 0.9 1.7 0.00 0.00 0.00 76 1022.9
20260507153707 52 100 0.0 1.7 0.00 0.00 0.00 76 1022.6
20260507153203 52 113 0.0 0.9 0.00 0.00 0.00 77 1022.9
20260507152700 51 95 0.0 0.9 0.00 0.00 0.00 77 1022.9
20260507152156 51 102 0.0 0.9 0.00 0.00 0.00 77 1022.9
20260507151652 51 68 0.9 1.7 0.00 0.00 0.00 78 1022.9
20260507151149 51 100 0.0 0.0 0.00 0.00 0.00 78 1022.9
20260507150646 50 111 0.0 0.9 0.00 0.00 0.00 78 1022.6
20260507150143 50 98 0.0 0.0 0.00 0.00 0.00 78 1022.9
20260507145638 50 87 0.9 0.9 0.00 0.00 0.00 78 1022.6
20260507145135 50 106 0.0 0.0 0.00 0.00 0.00 78 1022.6
20260507144631 50 113 0.9 2.6 0.00 0.00 0.00 78 1022.6
20260507144130 50 137 0.0 0.9 0.00 0.00 0.00 78 1022.3
20260507143626 50 158 0.9 2.6 0.00 0.00 0.00 78 1022.6
20260507143123 50 85 0.9 1.7 0.00 0.00 0.00 79 1022.3
20260507142619 50 343 0.0 1.7 0.00 0.00 0.00 79 1022.6
20260507142116 50 10 0.9 0.9 0.00 0.00 0.00 80 1022.6
20260507141612 50 154 0.0 0.9 0.00 0.00 0.00 80 1022.6
20260507141109 50 92 0.9 0.9 0.00 0.00 0.00 80 1022.3
20260507140605 50 111 0.0 0.0 0.00 0.00 0.00 81 1022.6
20260507135559 49 91 0.0 0.9 0.00 0.00 0.00 81 1022.6
20260507135051 49 91 0.0 0.0 0.00 0.00 0.00 80 1022.6
20260507134548 49 92 0.0 0.0 0.00 0.00 0.00 81 1022.3
20260507134043 49 43 0.0 0.9 0.00 0.00 0.00 81 1022.6
20260507133540 49 113 0.0 0.9 0.00 0.00 0.00 81 1022.6
20260507133038 49 94 0.0 1.7 0.00 0.00 0.00 81 1022.3
20260507132534 49 110 0.0 0.9 0.00 0.00 0.00 81 1022.6
20260507132031 49 111 0.0 0.0 0.00 0.00 0.00 82 1022.6
20260507131528 49 41 0.9 0.9 0.00 0.00 0.00 82 1022.6
20260507131025 48 356 2.6 2.6 0.00 0.00 0.00 82 1022.6
20260507130522 49 324 0.9 1.7 0.00 0.00 0.00 82 1022.6
20260507130020 49 91 0.0 2.6 0.00 0.00 0.00 82 1022.6
20260507125518 48 2 2.6 3.5 0.00 0.00 0.00 82 1022.6
20260507125015 49 142 0.9 1.7 0.00 0.00 0.00 83 1022.6
20260507124512 49 85 0.0 0.9 0.00 0.00 0.00 83 1022.6
20260507124010 49 89 0.9 2.6 0.00 0.00 0.00 83 1022.6
20260507123508 49 75 0.9 2.6 0.00 0.00 0.00 83 1022.6
20260507123004 49 327 0.0 0.9 0.00 0.00 0.00 83 1022.6
20260507122459 49 324 0.9 0.9 0.00 0.00 0.00 82 1022.6
20260507121955 49 324 0.9 2.6 0.00 0.00 0.00 82 1022.9
20260507121451 49 333 0.9 2.6 0.00 0.00 0.00 82 1022.6
20260507120947 49 98 0.9 0.9 0.00 0.00 0.00 82 1022.9
20260507120443 49 115 0.0 1.7 0.00 0.00 0.00 82 1022.9
20260507115940 49 105 0.0 0.9 0.00 0.00 0.00 82 1022.9
20260507115436 49 23 0.9 3.5 0.00 0.00 0.00 82 1022.9
20260507114932 49 35 0.0 0.9 0.00 0.00 0.00 83 1022.9
20260507114428 49 102 0.0 2.6 0.00 0.00 0.00 83 1022.9
20260507113926 49 357 0.9 2.6 0.00 0.00 0.00 83 1022.9
20260507113423 49 16 0.0 1.7 0.00 0.00 0.00 83 1022.9
20260507112921 49 356 1.7 1.7 0.00 0.00 0.00 83 1022.9
20260507112418 49 118 0.0 0.9 0.00 0.00 0.00 83 1022.9
20260507111915 49 14 0.9 1.7 0.00 0.00 0.00 83 1022.9
20260507111412 49 94 0.9 2.6 0.00 0.00 0.00 84 1022.9
20260507110908 49 34 0.0 1.7 0.00 0.00 0.00 84 1022.9
20260507110404 49 320 0.0 2.6 0.00 0.00 0.00 84 1022.9
20260507105901 49 96 0.0 1.7 0.00 0.00 0.00 84 1022.9
20260507105358 49 116 0.9 1.7 0.00 0.00 0.00 84 1022.9
20260507104855 49 151 0.9 2.6 0.00 0.00 0.00 84 1022.9
20260507104351 49 88 0.0 0.9 0.00 0.00 0.00 84 1022.9
20260507103848 49 313 0.9 1.7 0.00 0.00 0.00 84 1022.9
20260507103344 49 345 0.9 3.5 0.00 0.00 0.00 84 1022.9
20260507102841 50 110 0.0 1.7 0.00 0.00 0.00 84 1022.9
20260507102337 50 104 0.9 2.6 0.00 0.00 0.00 84 1022.9
20260507101833 50 110 0.0 0.9 0.00 0.00 0.00 84 1022.9
20260507101328 49 99 0.9 5.2 0.00 0.00 0.00 85 1022.9
20260507100825 49 93 0.0 1.7 0.00 0.00 0.00 85 1022.9
20260507100323 49 110 0.0 0.9 0.00 0.00 0.00 85 1022.9
20260507095821 49 107 0.0 0.9 0.00 0.00 0.00 85 1022.9
20260507095317 49 102 0.9 1.7 0.00 0.00 0.00 85 1022.9
20260507094815 49 38 0.9 1.7 0.00 0.00 0.00 85 1022.9
20260507094311 49 113 0.0 2.6 0.00 0.00 0.00 85 1022.9
20260507093808 49 272 0.9 1.7 0.00 0.00 0.00 85 1022.6
20260507093307 50 67 0.9 1.7 0.00 0.00 0.00 85 1022.9
20260507092804 50 188 0.9 1.7 0.00 0.00 0.00 84 1022.9
20260507092300 50 171 0.9 1.7 0.00 0.00 0.00 84 1022.9
20260507091757 50 184 0.0 3.5 0.00 0.00 0.00 84 1022.9
20260507091254 50 189 0.9 0.9 0.00 0.00 0.00 84 1022.9
20260507090754 50 76 0.0 1.7 0.00 0.00 0.00 84 1023.3
20260507090250 50 285 0.0 1.7 0.00 0.00 0.00 84 1022.9
20260507085747 50 282 2.6 3.5 0.00 0.00 0.00 84 1023.3
20260507085244 51 119 0.0 0.9 0.00 0.00 0.00 84 1023.3
20260507084741 51 99 0.0 0.9 0.00 0.00 0.00 84 1023.3
20260507084237 51 97 0.0 1.7 0.00 0.00 0.00 84 1023.3
20260507083735 51 92 1.7 2.6 0.00 0.00 0.00 84 1023.3
20260507083231 51 354 1.7 2.6 0.00 0.00 0.00 85 1023.3
20260507082728 51 8 1.7 1.7 0.00 0.00 0.00 85 1023.3
20260507082223 51 104 0.9 1.7 0.00 0.00 0.00 86 1023.3
20260507081720 51 22 0.9 0.9 0.00 0.00 0.00 86 1023.3
20260507081216 51 306 3.5 6.1 0.00 0.00 0.00 86 1022.9
20260507080713 51 22 1.7 2.6 0.00 0.00 0.00 86 1023.3
20260507080209 51 337 2.6 3.5 0.00 0.00 0.00 85 1022.9
20260507075705 51 322 0.9 1.7 0.00 0.00 0.00 85 1023.3
20260507075201 51 108 0.0 1.7 0.00 0.00 0.00 85 1022.9
20260507074658 51 89 0.0 0.9 0.00 0.00 0.00 85 1022.9
20260507074157 51 76 0.9 1.7 0.00 0.00 0.00 85 1022.9
20260507073653 51 92 0.9 2.6 0.00 0.00 0.00 85 1022.9
20260507073149 51 324 0.9 1.7 0.00 0.00 0.00 85 1022.9
20260507072647 51 86 0.0 0.9 0.00 0.00 0.00 85 1022.9
20260507072144 51 4 1.7 1.7 0.00 0.00 0.00 85 1022.9
20260507071642 51 93 0.0 0.9 0.00 0.00 0.00 85 1022.9
20260507071138 51 79 0.9 1.7 0.00 0.00 0.00 85 1022.9
20260507070635 51 96 0.0 1.7 0.00 0.00 0.00 85 1022.9
20260507070132 51 83 0.0 2.6 0.00 0.00 0.00 85 1022.9
20260507065628 51 88 0.0 0.9 0.00 0.01 0.01 86 1022.9
20260507065125 51 101 0.0 0.0 0.00 0.01 0.01 86 1022.9
20260507064623 51 164 0.0 0.9 0.00 0.01 0.01 86 1022.6
20260507064121 51 90 0.0 0.9 0.00 0.01 0.01 86 1022.9
20260507063619 51 160 0.0 0.0 0.00 0.01 0.01 86 1022.9
20260507063115 51 320 0.9 0.9 0.00 0.01 0.01 86 1022.9
20260507062611 51 125 0.9 1.7 0.00 0.01 0.01 86 1022.9
20260507062109 51 222 0.0 0.9 0.00 0.01 0.01 87 1022.9
20260507061607 51 107 0.0 0.9 0.00 0.01 0.01 87 1022.9
20260507061105 51 144 0.0 1.7 0.00 0.01 0.01 87 1022.9
20260507060603 51 59 1.7 1.7 0.00 0.01 0.01 87 1022.9
20260507060059 51 94 0.0 0.0 0.00 0.01 0.01 88 1022.9
20260507055554 51 95 0.0 0.0 0.00 0.01 0.01 88 1022.9
20260507055051 51 98 0.0 0.9 0.00 0.01 0.01 88 1023.3
20260507054547 51 105 0.0 0.9 0.00 0.01 0.01 89 1022.9
20260507054044 51 115 0.9 1.7 0.00 0.01 0.01 89 1022.9
20260507053542 51 197 0.0 1.7 0.00 0.01 0.01 90 1022.9
20260507053041 51 30 0.9 0.9 0.00 0.01 0.01 90 1022.9
20260507052538 50 160 0.0 0.9 0.00 0.01 0.01 90 1023.3
20260507052034 50 124 0.0 0.0 0.00 0.01 0.01 90 1022.9
20260507051532 50 130 0.0 0.9 0.00 0.01 0.01 90 1022.9
20260507051029 50 122 0.0 0.9 0.00 0.01 0.01 90 1023.3
20260507050525 50 105 0.0 0.0 0.00 0.01 0.01 90 1023.3
20260507050022 50 103 0.0 0.0 0.00 0.01 0.01 90 1022.9
20260507045518 50 101 0.0 0.0 0.00 0.01 0.01 89 1023.3
20260507045016 50 101 0.0 0.9 0.00 0.01 0.01 89 1023.3
20260507044512 50 114 0.9 0.9 0.00 0.01 0.01 89 1023.3
20260507044009 51 100 0.0 0.9 0.00 0.01 0.01 89 1023.3
20260507043505 51 214 0.0 0.9 0.00 0.01 0.01 88 1023.3
20260507043002 51 214 0.0 0.9 0.00 0.01 0.01 88 1022.9
20260507042458 51 72 0.0 0.9 0.00 0.01 0.01 88 1022.9
20260507041954 51 72 0.0 0.0 0.00 0.01 0.01 88 1022.9
20260507041451 51 42 0.0 0.0 0.00 0.01 0.01 87 1023.3
20260507040948 52 42 0.0 1.7 0.00 0.01 0.01 87 1022.9
20260507040444 52 114 0.0 0.9 0.00 0.01 0.01 86 1022.9
20260507035940 52 201 0.0 1.7 0.00 0.01 0.01 86 1022.9
20260507035437 52 127 0.0 0.9 0.00 0.01 0.01 85 1022.9
20260507034933 53 129 0.0 0.9 0.00 0.01 0.01 84 1022.9
20260507034430 53 33 0.0 1.7 0.00 0.01 0.01 84 1022.9
20260507033928 53 34 0.0 1.7 0.00 0.01 0.01 84 1022.9
20260507033426 53 177 0.9 0.9 0.00 0.01 0.01 84 1022.9
20260507032922 53 106 0.0 1.7 0.00 0.01 0.01 84 1022.9
20260507032420 53 267 1.7 1.7 0.00 0.01 0.01 84 1022.9
20260507031915 53 101 0.0 0.9 0.00 0.01 0.01 84 1022.9
20260507031412 54 16 0.0 0.9 0.00 0.01 0.01 83 1022.9
20260507030909 54 235 1.7 1.7 0.00 0.01 0.01 83 1022.6
20260507030406 54 105 0.0 0.0 0.00 0.01 0.01 83 1022.6
20260507025903 54 93 0.9 2.6 0.00 0.01 0.01 83 1022.9
20260507025401 54 128 0.0 0.9 0.00 0.01 0.01 83 1022.6
20260507024859 54 112 0.0 0.0 0.00 0.01 0.01 83 1022.9
20260507024355 54 211 0.9 0.9 0.00 0.01 0.01 83 1022.6
20260507023851 54 190 0.9 0.9 0.00 0.01 0.01 83 1022.6
20260507023348 54 258 0.9 0.9 0.00 0.01 0.01 83 1022.6
20260507022846 54 127 0.0 0.9 0.00 0.01 0.01 83 1022.6
20260507022342 54 100 0.0 0.0 0.00 0.01 0.01 82 1022.9
20260507021838 54 92 0.0 0.0 0.00 0.01 0.01 82 1022.9
20260507021333 54 125 0.0 0.9 0.00 0.01 0.01 82 1022.6
20260507020832 54 227 0.9 0.9 0.00 0.01 0.01 82 1022.6
20260507020328 54 200 0.0 1.7 0.00 0.01 0.01 82 1022.9
20260507015825 54 74 0.0 0.0 0.00 0.01 0.01 82 1022.9
20260507015323 54 130 0.9 2.6 0.00 0.01 0.01 82 1022.6
20260507014819 54 309 0.9 2.6 0.00 0.01 0.01 82 1022.9
20260507014315 55 346 0.9 1.7 0.00 0.01 0.01 81 1022.6
20260507013806 55 110 0.0 0.0 0.00 0.01 0.01 81 1022.6
20260507013304 55 246 0.0 0.9 0.00 0.01 0.01 80 1022.6
20260507012801 55 134 0.0 0.9 0.00 0.01 0.01 80 1022.6
20260507012257 55 134 0.0 0.9 0.00 0.01 0.01 79 1022.6
20260507011754 55 134 0.0 1.7 0.00 0.01 0.01 79 1022.6
20260507011251 55 134 0.0 0.0 0.00 0.01 0.01 79 1022.6
20260507010750 55 106 0.9 0.9 0.00 0.01 0.01 78 1022.6
20260507010246 55 103 0.0 0.9 0.00 0.01 0.01 79 1022.6
20260507005744 55 116 0.0 0.9 0.00 0.01 0.01 80 1022.6
20260507005240 55 167 0.9 2.6 0.00 0.01 0.01 80 1022.6
20260507004737 55 104 1.7 2.6 0.00 0.01 0.01 79 1022.9
20260507004235 55 110 0.0 2.6 0.00 0.01 0.01 79 1022.9
20260507003731 55 104 0.9 1.7 0.00 0.01 0.01 79 1022.6
20260507003226 56 175 3.5 3.5 0.00 0.01 0.01 79 1022.6
20260507002722 55 168 1.7 1.7 0.00 0.01 0.01 79 1022.6
20260507002219 55 111 1.7 2.6 0.00 0.01 0.01 80 1022.6
20260507001715 55 164 1.7 2.6 0.00 0.01 0.01 80 1022.6
20260507001213 55 116 0.9 2.6 0.00 0.01 0.01 80 1022.6
20260507000709 55 110 0.0 1.7 0.00 0.01 0.01 80 1022.3
20260507000205 55 181 0.9 1.7 0.00 0.01 0.01 80 1022.6
20260506235702 55 117 0.0 0.9 0.00 0.01 0.01 81 1022.3
20260506235157 56 117 1.7 2.6 0.00 0.01 0.01 80 1022.3
20260506234654 55 128 0.0 3.5 0.00 0.01 0.01 81 1022.3
20260506234151 55 107 0.0 1.7 0.00 0.01 0.01 81 1022.6
20260506233649 56 95 0.0 2.6 0.00 0.01 0.01 80 1022.6
20260506233145 55 101 0.0 1.7 0.00 0.01 0.01 81 1022.6
20260506232642 55 130 0.0 2.6 0.00 0.01 0.01 81 1022.6
20260506232137 55 103 0.9 0.9 0.00 0.01 0.01 81 1022.6
20260506231634 56 102 0.0 0.9 0.00 0.01 0.01 81 1022.6
20260506231133 55 121 0.9 0.9 0.00 0.01 0.01 81 1022.6
20260506230629 55 122 0.0 1.7 0.00 0.01 0.01 81 1022.6
20260506230126 55 130 0.9 1.7 0.00 0.01 0.01 80 1022.6
20260506225623 55 107 0.9 0.9 0.00 0.01 0.01 80 1022.6
20260506225119 55 111 0.9 1.7 0.00 0.01 0.01 81 1022.6
20260506224616 55 181 1.7 3.5 0.00 0.01 0.01 81 1022.6
20260506224113 55 104 0.0 0.9 0.00 0.01 0.01 81 1022.6
20260506223609 54 99 0.0 2.6 0.00 0.01 0.01 82 1022.6
20260506223105 54 103 1.7 3.5 0.00 0.01 0.01 83 1022.6
20260506222602 54 115 1.7 2.6 0.00 0.01 0.01 83 1022.6
20260506222059 54 121 1.7 3.5 0.00 0.01 0.01 83 1022.6
20260506221556 54 142 0.9 5.2 0.00 0.01 0.01 84 1022.6
20260506221054 54 175 4.3 6.1 0.00 0.01 0.01 82 1022.6
20260506220550 55 93 0.0 0.9 0.00 0.01 0.01 82 1022.6
20260506220045 55 112 0.9 0.9 0.00 0.01 0.01 82 1022.9
20260506215543 55 140 1.7 2.6 0.00 0.01 0.01 80 1022.9
20260506215038 56 108 0.0 0.0 0.00 0.01 0.01 77 1022.6
20260506214535 57 293 0.0 0.9 0.00 0.01 0.01 76 1022.6
20260506214033 56 125 0.0 1.7 0.00 0.01 0.01 76 1022.6
20260506213531 57 146 0.9 1.7 0.00 0.01 0.01 76 1022.6
20260506213028 57 214 0.9 1.7 0.00 0.01 0.01 77 1022.9
20260506212524 56 125 0.0 0.9 0.00 0.01 0.01 79 1022.9
20260506212019 55 23 1.7 2.6 0.00 0.01 0.01 78 1022.9
20260506211515 55 73 0.0 1.7 0.00 0.01 0.01 79 1022.9